Weather History for PHOG - April, 2014

Change the Weather History Date:

Tuesday, April 8, 2014

  Actual Average Record
Temperature  
Mean Temperature 72 °F 74 °F  
Max Temperature 79 °F 82 °F 96 °F (2005)
Min Temperature 65 °F 66 °F 56 °F (1951)
Degree Days  
Heating Degree Days 0 0  
Month to date heating degree days 0 0  
Since 1 July heating degree days 0 0  
Cooling Degree Days 7 9  
Month to date cooling degree days 78 72  
Year to date cooling degree days 882 726  
Growing Degree Days 22 (Base 50)    
Moisture  
Dew Point 59 °F    
Average Humidity 67    
Maximum Humidity 87    
Minimum Humidity 47    
Precipitation  
Precipitation 0.12 in 0.06 in 1.85 in (1989)
Month to date precipitation 0.87 0.54  
Year to date precipitation 11.27 7.75  
Snow  
Snow 0.00 in - - ()
Month to date snowfall 0.0  
Since 1 July snowfall 0.0  
Snow Depth 0.00 in    
Sea Level Pressure  
Sea Level Pressure 30.10 in    
Wind  
Wind Speed 15 mph (NE)    
Max Wind Speed 24 mph    
Max Gust Speed 31 mph    
Visibility 10 miles    
Events Rain    
T = Trace of Precipitation, MM = Missing Value Source: NWS Daily Summary

Daily Weather History Graph

Daily Weather History Graph

Search for Another Location

Airport or City:

Trip Planner

Search our weather history database for the weather conditions in past years. The results will help you decide how hot, cold, wet, or windy it might be!

Date:

Astronomy

Apr. 08, 2014 Rise Set
Actual Time 6:12 AM HST 6:42 PM HST
Civil Twilight 5:50 AM HST 7:05 PM HST
Nautical Twilight 5:24 AM HST 7:31 PM HST
Astronomical Twilight 4:57 AM HST 7:57 PM HST
Moon 1:27 PM HST (4/8) 1:49 AM HST (4/8)
Length of Visible Light 13h 14m
Length of Day
12h 29m
Waxing Gibbous, 65% of the Moon is Illuminated
Apr 8
Waxing Gibbous
Apr 14
Full
Apr 21
Last Quarter
Apr 28
New
May 6
First Quarter

Hourly Weather History & Observations

Time (HST) Temp. Dew Point Humidity Pressure Visibility Wind Dir Wind Speed Gust Speed Precip Events Conditions
12:54 AM 64.9 °F 61.0 °F 87% 30.12 in 10.0 mi NE 8.1 mph - N/A   Mostly Cloudy
1:45 AM 66.2 °F 62.6 °F 88% 30.09 in 10.0 mi NE 11.5 mph - 0.00 in Rain Light Rain
1:54 AM 64.9 °F 62.1 °F 90% 30.11 in 7.0 mi NE 10.4 mph - 0.02 in Rain Rain
2:49 AM 66.2 °F 62.6 °F 88% 30.07 in 10.0 mi NE 16.1 mph - 0.05 in   Overcast
2:54 AM 68.0 °F 62.1 °F 81% 30.09 in 10.0 mi NE 20.7 mph - 0.05 in   Overcast
3:54 AM 66.0 °F 61.0 °F 84% 30.09 in 10.0 mi NE 12.7 mph - 0.00 in Rain Light Rain
4:13 AM 66.2 °F 60.8 °F 83% 30.07 in 9.0 mi NE 13.8 mph 19.6 mph 0.02 in Rain Light Rain
4:29 AM 66.2 °F 60.8 °F 83% 30.07 in 10.0 mi ENE 11.5 mph 20.7 mph 0.03 in Rain Light Rain
4:54 AM 66.0 °F 61.0 °F 84% 30.09 in 10.0 mi NE 9.2 mph - 0.03 in Rain Light Rain
5:45 AM 66.2 °F 60.8 °F 83% 30.09 in 10.0 mi NE 5.8 mph - 0.02 in Rain Light Rain
5:54 AM 66.0 °F 61.0 °F 84% 30.10 in 10.0 mi NE 13.8 mph 19.6 mph 0.02 in   Overcast
6:34 AM 68.0 °F 60.8 °F 78% 30.10 in 10.0 mi NE 15.0 mph 26.5 mph 0.00 in Rain Light Rain
6:54 AM 69.1 °F 59.0 °F 70% 30.11 in 10.0 mi NE 18.4 mph 26.5 mph 0.00 in Rain Light Rain
7:54 AM 70.0 °F 57.9 °F 65% 30.12 in 10.0 mi NE 17.3 mph 24.2 mph 0.00 in Rain Light Rain
8:54 AM 70.0 °F 57.9 °F 65% 30.13 in 10.0 mi ENE 10.4 mph - 0.00 in Rain Light Rain
9:54 AM 72.0 °F 57.0 °F 59% 30.13 in 10.0 mi NE 18.4 mph 23.0 mph 0.00 in   Scattered Clouds
10:54 AM 73.9 °F 55.9 °F 53% 30.13 in 10.0 mi NE 17.3 mph 24.2 mph N/A   Mostly Cloudy
11:54 AM 77.0 °F 55.9 °F 48% 30.12 in 10.0 mi NE 18.4 mph 29.9 mph N/A   Scattered Clouds
12:54 PM 77.0 °F 55.9 °F 48% 30.09 in 10.0 mi NE 20.7 mph 27.6 mph N/A   Clear
1:54 PM 78.1 °F 57.0 °F 48% 30.07 in 10.0 mi NE 23.0 mph 31.1 mph N/A   Partly Cloudy
2:54 PM 77.0 °F 55.9 °F 48% 30.05 in 10.0 mi NE 19.6 mph - N/A   Partly Cloudy
3:54 PM 77.0 °F 55.9 °F 48% 30.05 in 10.0 mi NE 20.7 mph 27.6 mph N/A   Partly Cloudy
4:54 PM 73.9 °F 57.9 °F 57% 30.05 in 10.0 mi NE 18.4 mph 27.6 mph N/A   Partly Cloudy
5:54 PM 72.0 °F 57.9 °F 61% 30.06 in 10.0 mi ENE 12.7 mph 25.3 mph 0.00 in   Overcast
6:54 PM 72.0 °F 59.0 °F 64% 30.07 in 10.0 mi NE 16.1 mph 27.6 mph 0.00 in   Mostly Cloudy
7:54 PM 69.1 °F 61.0 °F 75% 30.10 in 10.0 mi ENE 8.1 mph - 0.00 in Rain Light Rain
8:54 PM 70.0 °F 59.0 °F 68% 30.12 in 10.0 mi ENE 8.1 mph - 0.00 in   Mostly Cloudy
9:54 PM 71.1 °F 57.0 °F 61% 30.12 in 10.0 mi ENE 17.3 mph 24.2 mph N/A   Mostly Cloudy
10:54 PM 71.1 °F 55.9 °F 59% 30.12 in 10.0 mi NE 16.1 mph 23.0 mph N/A   Mostly Cloudy
11:54 PM 71.1 °F 54.0 °F 55% 30.12 in 10.0 mi NE 16.1 mph 20.7 mph N/A   Scattered Clouds